Wind_Speed
13 13 14 14 14 14 14 14 13 14 13 13 13 13 13 13 12 12 12 12 12 12 13 13 13 14 15 15 15 15 17 20 21 13 12 23 25 18 14 11 5 13 11 7 7 6 5 5 7 7 6 3 2 1 2 3 2 1 2 2 2 3 4 4 6 4 2 3 6 7 5 5 4 4 2 5 6 4 3 4 3 5 6 4 5 18 27 24
13 13 14 14 14 14 14 14 14 14 14 14 14 13 14 13 13 12 12 12 12 12 12 13 13 14 14 15 15 15 18 21 18 15 25 31 25 20 18 11 8 13 14 12 10 9 7 4 7 7 4 2 1 2 2 2 3 3 3 2 4 4 5 5 5 5 3 4 7 7 6 5 3 2 2 3 1 1 3 3 3 5 6 7 12 23 25 23
13 13 14 14 14 14 14 15 14 14 14 14 14 14 14 14 14 13 13 13 12 12 12 13 13 14 14 14 14 15 17 16 9 15 28 26 22 25 21 15 13 15 18 19 13 12 8 4 9 7 3 1 2 2 2 2 4 3 3 2 5 5 5 6 7 9 8 7 6 6 4 5 2 2 2 4 2 1 3 3 0 1 2 8 11 17 20 21
14 14 15 15 14 14 15 15 15 15 15 15 15 15 14 15 14 14 13 13 13 12 12 13 13 14 14 13 14 14 12 9 5 10 15 13 16 20 20 20 18 15 17 18 14 12 8 5 9 5 3 2 3 1 2 3 3 2 3 5 5 4 4 8 8 9 9 6 4 5 2 5 4 2 4 6 5 3 4 5 5 6 7 11 11 13 16 17
14 15 15 15 15 15 15 15 15 15 15 15 15 15 15 15 15 15 14 14 13 13 13 13 13 14 14 13 11 10 6 3 4 4 2 5 10 14 18 22 21 17 15 14 11 11 8 4 6 4 2 2 2 1 3 5 3 1 4 6 5 3 5 8 5 6 7 5 4 5 2 1 3 3 6 8 6 5 6 7 9 8 11 14 14 13 13 13
13 15 15 15 15 15 15 15 16 16 16 16 16 16 15 16 16 15 15 15 14 13 13 12 13 13 14 11 6 5 2 2 6 3 2 4 5 9 17 23 23 18 16 14 9 10 7 3 5 4 3 2 3 4 4 4 3 2 5 4 6 5 7 7 2 6 7 4 6 5 2 0 3 2 5 8 6 8 6 5 6 7 10 13 14 13 11 10
14 14 14 14 15 15 15 15 16 16 16 16 16 16 16 16 16 16 15 15 14 13 13 12 13 13 13 9 2 2 1 7 16 9 5 7 8 6 19 24 22 19 18 14 9 9 6 5 5 4 4 2 4 6 5 2 3 4 5 4 6 7 8 9 6 8 6 5 8 3 1 2 2 4 2 2 6 6 3 1 6 7 8 10 11 11 10 10
14 15 15 14 15 15 16 16 16 16 17 16 17 17 17 17 17 16 16 15 15 14 13 12 12 12 12 8 1 2 0 14 27 21 15 12 7 8 25 24 20 20 19 16 12 9 6 7 6 4 4 4 4 4 4 2 2 5 6 5 5 6 9 10 8 9 8 6 7 2 1 5 5 2 3 5 6 2 3 6 9 9 8 8 9 10 10 10
14 16 16 16 15 16 16 16 16 17 17 17 17 17 17 17 17 17 16 16 15 14 13 12 11 9 9 6 1 2 7 17 23 20 18 12 4 14 26 23 21 21 17 17 13 9 7 7 6 5 5 5 4 4 4 3 3 6 7 6 4 7 9 8 7 9 8 6 4 2 5 8 6 1 3 7 3 2 6 8 8 9 9 8 8 9 10 11
15 15 16 16 16 16 16 16 17 17 17 17 17 18 18 18 18 17 17 16 14 13 13 11 9 7 7 4 1 3 8 10 11 11 12 9 9 18 24 21 22 22 15 13 14 13 9 7 6 4 3 3 5 5 4 5 4 6 6 5 7 10 10 6 7 8 7 5 5 7 8 8 4 0 3 6 1 5 8 7 7 9 8 9 9 8 9 10
16 16 15 15 16 16 16 16 17 17 18 18 18 19 19 19 18 17 17 16 14 13 11 10 8 6 5 2 3 5 6 5 3 1 5 9 14 20 23 21 21 23 17 10 16 21 13 7 4 2 2 2 3 3 4 5 3 4 3 5 8 8 7 5 6 7 4 4 7 9 7 6 3 1 6 6 4 6 8 7 7 8 7 9 9 8 8 7
16 16 15 15 15 15 16 16 16 17 18 18 19 19 19 19 19 18 17 16 14 12 10 9 6 3 3 2 6 14 7 2 4 7 1 10 16 17 18 20 20 22 21 12 15 23 16 8 4 2 3 1 1 2 3 4 2 3 1 3 8 6 5 6 5 5 5 3 6 8 3 6 3 4 6 6 6 5 7 8 6 7 7 8 9 7 7 7
15 16 16 15 15 15 16 17 17 18 18 19 20 20 20 20 20 19 18 16 13 12 10 7 4 2 1 1 12 21 13 7 7 14 11 9 12 13 11 15 18 21 23 16 13 20 21 14 7 4 4 1 2 3 1 1 1 3 0 1 5 6 5 6 2 4 6 4 6 6 2 6 7 7 7 4 7 7 5 7 5 6 6 7 8 7 7 8
15 15 15 16 16 16 16 17 17 18 19 20 20 21 21 21 21 19 17 16 13 10 8 4 2 2 2 6 15 16 15 16 18 20 16 11 11 11 11 13 16 20 23 16 9 15 20 16 7 2 3 3 3 4 3 4 2 2 2 0 2 1 4 7 2 4 5 2 3 6 1 7 10 6 5 6 7 10 8 7 6 6 6 6 7 7 7 8
16 15 15 15 16 16 17 17 18 18 19 20 21 22 23 23 22 19 16 14 10 6 5 2 4 4 0 10 15 11 9 12 17 22 17 11 11 8 10 14 15 18 22 17 10 10 11 9 5 1 3 2 1 2 3 4 3 2 1 3 3 2 5 8 4 4 5 1 1 5 2 7 9 5 5 7 6 9 9 7 7 7 7 7 7 7 7 5
17 17 16 15 16 17 17 17 18 19 20 21 22 23 24 23 21 18 15 10 5 4 4 2 6 6 1 7 9 7 6 9 15 20 17 13 13 9 9 12 12 13 17 16 12 8 3 2 2 2 2 1 3 3 2 4 4 3 1 3 3 1 3 5 4 2 5 3 1 3 3 4 4 4 2 5 7 8 8 7 8 8 7 8 7 6 6 5
17 17 17 16 16 17 17 17 18 19 20 21 23 26 26 22 19 15 11 6 3 5 5 3 5 5 5 8 7 7 7 12 13 12 15 17 16 13 8 7 7 8 10 10 8 5 2 0 2 1 1 1 3 4 2 2 4 3 2 0 2 2 1 2 4 5 1 4 2 3 4 6 4 2 1 4 7 8 9 8 8 7 6 6 6 5 5 5
15 16 16 15 16 17 17 17 18 18 20 21 24 27 24 15 9 7 5 7 5 3 4 1 3 4 6 10 7 6 4 7 12 10 14 18 17 16 11 6 4 6 4 1 2 2 1 0 1 1 1 1 3 5 4 5 4 2 1 1 2 3 1 2 3 3 2 1 4 3 4 11 8 1 1 6 8 9 10 6 4 4 4 3 4 5 5 6
16 17 16 16 17 17 17 17 18 18 19 21 23 21 11 3 2 3 6 8 6 3 3 4 6 3 4 7 7 7 9 3 9 9 13 16 15 15 11 6 4 7 5 1 1 3 3 1 3 3 3 3 4 5 7 7 6 6 3 3 1 4 3 4 5 5 2 2 6 6 7 11 9 4 3 6 6 8 8 3 5 4 4 3 4 4 5 7
18 18 17 17 17 18 18 17 17 18 19 20 22 16 3 2 2 2 3 5 6 5 4 5 9 5 5 3 2 6 10 2 4 7 15 18 13 9 7 4 3 4 4 4 4 3 4 4 2 5 6 5 6 7 7 5 5 4 2 1 1 2 5 5 4 7 3 4 8 7 8 9 6 6 4 3 3 6 8 4 5 6 6 5 6 6 6 5
18 17 17 17 18 18 17 18 18 18 18 18 17 9 1 2 0 0 2 6 10 12 11 7 12 12 11 9 6 10 7 3 2 2 14 18 13 8 4 4 4 2 3 5 4 1 3 5 5 7 8 8 7 7 6 4 4 2 1 1 3 2 5 6 4 7 1 5 6 2 5 6 4 6 6 5 4 5 8 6 5 6 7 6 5 4 2 3
18 17 17 17 18 18 18 19 18 18 19 19 12 4 5 5 1 5 5 4 9 15 17 14 12 15 17 18 17 9 4 4 4 2 9 13 9 6 3 4 5 4 2 3 3 2 2 4 8 8 7 5 3 4 6 4 4 2 2 2 2 2 4 7 5 6 1 4 5 1 5 4 5 5 6 9 6 5 5 2 1 1 1 2 3 4 5 5
18 18 18 17 18 19 19 19 20 21 21 16 9 8 7 8 9 15 8 2 7 9 13 14 13 12 13 15 16 10 5 4 4 3 9 12 6 5 5 4 6 4 3 5 5 4 3 5 8 6 6 5 3 3 8 4 2 2 2 3 2 3 1 3 5 6 4 1 2 4 4 3 6 5 6 10 9 7 7 6 6 6 5 4 4 5 6 7
18 17 17 17 18 18 18 22 22 18 13 11 14 14 10 15 18 17 6 2 5 5 9 13 10 8 11 10 8 10 6 3 4 4 11 13 5 4 5 4 6 5 3 6 7 5 5 6 4 6 7 7 5 3 7 5 1 3 4 5 3 5 4 5 5 6 5 5 3 7 4 5 5 6 7 8 9 10 11 11 11 10 7 4 4 5 5 7
17 17 17 17 17 17 20 21 15 8 7 11 16 13 13 18 19 10 3 1 4 4 4 8 6 6 11 8 9 10 3 3 5 4 10 13 8 5 4 3 4 5 5 6 7 5 7 5 5 7 5 6 5 5 4 7 3 3 4 8 8 7 5 4 3 4 5 6 4 6 4 3 4 7 7 7 7 9 11 12 12 12 11 7 3 5 5 5
17 16 16 16 16 18 19 11 6 10 12 10 10 11 15 18 15 3 4 2 3 3 2 5 4 7 9 8 8 6 3 3 5 7 9 13 12 7 4 2 2 4 6 5 4 3 4 4 6 7 6 6 6 5 4 7 6 2 5 8 9 5 4 3 1 4 3 1 2 4 6 3 5 7 8 8 6 8 11 13 13 11 11 10 6 2 3 4
16 16 15 15 15 16 13 6 11 15 8 6 10 16 17 16 11 3 3 4 3 3 3 2 2 8 9 8 10 7 2 2 2 5 9 13 10 5 5 4 2 4 4 4 2 3 4 5 5 6 6 6 5 4 6 8 8 3 6 6 8 7 7 5 4 5 2 2 3 4 5 3 4 5 8 8 4 8 13 14 14 13 13 12 10 7 4 2
16 16 15 15 14 14 12 13 16 10 6 8 16 18 17 15 6 3 1 1 2 2 4 2 3 7 5 7 12 7 3 4 5 3 9 16 11 5 5 6 5 6 4 5 3 4 4 6 7 7 5 4 5 6 8 9 6 7 6 6 7 7 7 5 5 4 0 2 2 6 4 5 3 5 7 7 6 9 11 12 14 14 13 12 10 9 7 5
15 16 15 15 15 15 13 13 12 9 9 15 18 19 18 11 2 3 1 2 2 1 2 2 4 5 3 6 10 6 1 3 5 3 5 12 8 3 5 6 6 6 4 6 6 4 3 6 8 7 5 6 8 7 9 11 6 7 5 6 4 4 5 4 5 4 3 5 2 7 2 5 1 5 6 6 6 8 8 8 10 11 12 12 11 10 9 7
15 15 15 15 16 14 12 13 18 15 13 16 20 21 13 4 2 3 1 2 2 1 1 2 3 4 6 8 7 6 3 1 2 4 4 5 4 2 2 3 5 5 2 1 3 4 3 2 5 5 6 7 7 5 9 13 9 3 5 5 5 5 5 4 3 4 4 2 5 7 1 5 1 3 4 4 3 6 6 5 8 10 11 11 10 9 9 8
16 16 16 16 15 13 10 10 13 10 10 16 22 16 5 1 2 2 3 2 1 1 1 2 2 4 10 11 7 6 5 1 3 6 4 4 4 1 2 3 3 3 0 1 1 4 5 1 2 3 6 6 4 4 5 9 5 4 4 5 3 2 4 4 4 4 4 2 6 5 4 7 2 2 3 3 4 6 6 6 8 10 10 10 9 9 9 8
18 19 18 18 16 14 13 9 5 5 10 19 18 7 2 2 1 2 2 3 2 1 1 3 3 4 9 9 6 7 5 2 3 6 5 5 5 4 2 3 4 2 1 3 2 4 3 3 3 4 4 5 5 3 1 2 3 5 4 5 5 0 2 1 2 1 3 2 4 4 3 6 1 2 3 4 5 6 6 6 8 9 9 9 9 9 9 8
21 22 22 22 20 21 23 18 13 14 17 18 9 2 3 1 3 2 3 3 2 2 3 3 2 4 9 7 5 5 4 3 3 4 5 5 5 6 3 2 6 5 2 3 2 2 3 4 4 2 3 4 7 5 3 3 3 5 5 5 5 3 3 1 2 0 2 1 3 5 1 3 1 1 2 2 4 4 5 7 7 8 8 8 9 10 9 9
24 25 26 24 21 24 24 21 19 17 14 10 3 2 2 2 3 1 2 2 2 4 6 3 5 5 8 7 5 6 4 2 3 5 4 4 4 6 4 0 4 5 3 2 3 3 2 3 3 3 3 3 7 7 6 7 4 4 4 6 5 5 4 3 3 3 3 2 1 3 2 2 2 1 2 3 1 3 6 7 8 9 8 8 9 10 10 10
25 25 23 21 20 20 18 17 16 11 6 3 3 2 2 3 2 1 2 2 2 5 6 2 6 6 5 3 3 7 5 1 2 5 4 4 4 5 4 3 4 4 4 3 2 2 4 4 7 4 2 4 7 5 5 8 4 1 2 6 3 5 6 3 3 5 5 3 3 4 2 1 1 3 2 4 1 3 5 6 8 10 10 9 9 10 10 9
25 22 18 17 17 12 9 12 13 10 5 2 3 2 3 3 2 2 2 2 1 6 6 1 3 5 3 1 2 6 4 3 3 3 2 4 4 4 4 4 5 5 5 4 3 1 4 3 7 3 2 4 7 6 4 5 4 1 2 4 3 4 8 5 2 1 3 5 2 2 3 2 1 2 2 3 1 4 5 6 8 9 9 10 9 8 8 8
21 17 12 13 13 5 7 13 16 13 5 3 3 3 3 3 3 3 3 2 4 6 3 1 2 4 4 3 3 5 4 2 3 3 2 2 2 4 5 3 4 8 7 5 2 2 4 2 6 1 3 5 3 5 3 1 5 4 2 5 2 3 5 4 2 2 4 4 1 2 2 3 2 1 2 2 5 6 6 7 7 7 8 8 7 7 8 8
17 11 10 11 7 6 10 17 20 12 3 2 2 3 3 3 3 4 5 5 5 4 1 2 2 3 4 4 3 4 6 4 4 4 3 2 2 3 4 3 3 7 9 7 2 2 3 0 6 3 3 3 3 6 3 5 2 5 4 4 4 3 1 1 2 2 2 3 0 2 2 1 2 1 2 4 7 7 7 6 6 7 7 7 7 8 8 9
10 5 5 5 3 9 16 21 17 5 3 2 3 3 2 3 5 7 7 5 4 1 1 0 2 2 3 4 3 3 6 6 5 4 2 2 1 1 1 1 2 4 7 9 5 2 3 3 4 5 2 1 3 4 3 3 4 4 4 3 2 3 4 2 2 3 4 3 1 2 1 2 3 3 2 4 6 7 7 5 6 7 7 7 7 8 8 8
5 2 2 1 5 14 21 18 7 2 2 3 3 2 3 4 6 9 9 7 3 1 0 1 3 2 1 3 3 3 5 6 5 4 1 2 2 1 1 0 0 1 5 7 4 1 2 3 2 5 5 1 1 1 5 6 2 2 3 1 0 2 3 2 1 2 4 5 3 3 1 3 3 2 2 2 5 7 7 6 6 7 7 8 8 8 8 8
4 1 1 2 12 21 20 8 1 2 2 2 1 2 3 5 5 8 11 8 3 2 1 2 3 2 1 2 2 1 3 4 3 3 2 2 3 1 1 1 0 1 5 5 2 1 2 2 3 3 4 2 2 5 4 7 6 4 3 2 2 3 4 3 1 1 3 4 4 5 3 3 1 1 1 3 5 6 6 6 7 7 7 8 8 8 9 8
2 0 1 8 20 21 10 2 0 1 1 1 2 3 4 5 5 5 8 6 2 1 1 2 3 2 1 1 2 2 3 4 3 3 2 2 3 1 3 4 2 2 5 4 2 2 3 4 3 1 2 1 3 5 2 7 10 8 4 2 1 3 5 5 3 3 3 3 2 3 3 2 0 3 4 5 5 7 8 6 6 6 7 8 8 9 9 8
1 1 1 15 24 12 2 1 0 1 1 3 4 4 3 4 4 4 5 5 2 2 3 2 2 2 2 2 3 3 3 4 4 3 3 3 3 2 6 7 3 2 4 2 2 1 2 3 3 0 3 3 4 4 5 7 9 8 4 3 2 0 3 5 5 3 4 3 2 3 2 1 1 4 5 5 7 9 9 7 7 7 6 7 8 9 8 8
2 2 1 14 20 5 3 2 1 1 2 3 4 4 3 3 4 4 5 4 3 1 2 3 2 2 2 3 4 4 3 4 5 4 3 3 1 4 7 7 3 2 2 2 4 2 1 1 3 3 1 3 4 3 5 6 5 4 3 4 3 2 4 5 2 4 4 3 3 5 2 2 3 6 6 6 8 10 8 7 8 7 6 7 7 8 8 8
2 2 2 7 12 5 1 3 2 1 2 3 3 4 3 2 4 6 5 3 3 0 2 1 2 1 3 4 5 6 6 5 3 2 2 3 2 4 7 9 5 3 3 3 4 4 3 2 3 5 5 3 3 2 1 1 2 3 3 5 6 4 4 4 3 4 3 2 3 4 4 4 5 7 7 6 8 9 7 7 8 7 7 7 7 7 8 8
1 0 1 1 4 3 2 1 2 2 2 1 2 3 2 2 3 4 5 1 2 1 3 1 2 3 5 6 6 7 9 7 4 3 3 3 2 2 6 7 5 4 6 8 7 4 5 3 3 5 5 5 5 2 1 2 3 3 4 7 7 4 3 4 4 4 5 4 2 0 6 9 7 6 6 6 7 7 5 6 7 6 6 6 6 7 7 8
1 1 2 2 1 2 2 2 1 2 2 1 1 3 3 4 3 1 0 1 1 2 3 3 4 4 3 4 6 4 6 6 6 5 4 3 1 2 6 6 6 8 7 6 6 3 6 4 4 7 7 3 3 5 6 7 7 5 4 7 7 6 6 6 4 2 6 7 1 3 9 11 8 6 7 6 6 6 5 6 6 5 6 6 6 7 8 9
2 0 1 2 1 2 3 2 3 4 4 2 1 3 3 2 2 1 2 2 2 3 3 3 7 5 2 3 5 3 4 5 6 4 2 3 2 2 6 5 6 9 7 4 5 3 7 3 3 6 9 8 7 7 9 12 10 9 9 8 9 10 10 8 4 1 2 5 6 9 10 8 6 6 6 5 6 6 6 5 5 6 6 6 7 8 9 9
1 0 2 1 0 2 4 3 4 5 5 4 2 3 3 1 3 0 2 2 4 5 4 3 6 6 5 5 6 3 2 3 3 2 1 2 2 2 3 3 4 7 6 5 4 3 5 3 2 6 9 9 8 6 7 11 11 10 12 11 10 11 12 11 7 4 5 5 8 13 12 8 5 5 6 6 5 5 5 6 6 7 6 6 7 8 8 8
0 1 1 1 2 2 2 1 3 3 3 4 3 4 2 2 4 2 2 3 3 3 4 6 5 6 8 8 8 4 2 6 5 2 2 3 2 2 2 1 2 4 5 4 3 3 4 2 1 3 6 6 7 6 7 11 12 12 11 10 9 9 10 9 7 6 8 8 9 13 11 6 3 4 6 6 4 4 5 7 7 6 6 6 7 7 7 8
3 4 2 1 1 1 1 1 3 4 0 2 4 3 1 1 2 3 4 3 3 4 4 8 7 6 7 9 9 5 3 5 7 5 6 5 3 2 2 1 2 1 4 3 2 3 4 4 1 3 5 2 2 4 7 9 12 12 10 9 9 7 6 5 4 4 4 7 12 11 6 4 4 5 6 5 5 6 7 7 6 5 5 6 7 7 7 8
6 5 3 1 1 2 1 1 2 3 2 3 3 1 1 1 1 4 4 5 5 4 4 7 8 6 6 7 7 1 5 5 5 4 5 5 6 5 4 3 4 4 2 2 2 2 4 6 3 2 4 1 3 1 3 5 7 6 5 6 5 3 5 5 5 6 4 4 8 6 4 5 6 5 5 5 6 6 6 6 5 5 5 6 7 7 7 8
Wind_Direction
313 311 311 313 314 314 312 312 312 312 313 312 312 313 312 313 313 314 315 313 314 313 312 312 312 313 311 310 311 311 315 311 302 290 246 252 258 254 256 277 232 183 183 178 169 162 147 162 184 170 149 148 174 190 184 179 165 121 121 154 197 196 213 196 200 215 177 256 284 313 342 75 36 357 56 28 31 70 76 9 8 13 20 66 113 134 140 144
313 310 310 310 311 312 312 312 311 311 312 310 311 312 311 313 312 313 314 313 314 312 313 315 312 313 311 310 312 314 316 306 297 275 256 259 263 262 257 248 198 190 197 200 194 170 152 176 182 156 132 145 221 194 179 188 173 171 140 159 215 202 220 216 220 255 251 255 284 297 309 13 62 146 84 78 325 359 82 340 360 34 38 75 113 128 133 140
314 312 311 311 310 310 310 311 311 311 310 310 310 309 310 311 311 312 312 312 312 314 316 315 313 314 313 313 317 319 311 305 298 267 267 269 262 257 251 238 213 203 208 211 206 188 180 171 165 141 99 192 251 189 185 222 192 183 140 192 234 207 240 262 251 265 273 278 294 284 301 360 347 137 89 126 152 286 173 231 357 84 119 110 124 129 132 141
313 311 310 311 311 310 310 309 309 310 309 309 309 309 309 308 311 310 310 311 311 315 315 316 317 314 315 321 322 314 306 305 273 259 271 267 254 247 237 228 212 201 207 212 211 201 193 144 150 135 90 225 291 176 189 234 204 179 169 207 238 190 238 260 246 263 281 290 281 264 334 3 318 60 105 126 107 296 258 231 208 186 160 139 144 141 140 146
312 311 309 307 307 308 310 309 308 309 309 309 309 309 308 308 309 309 310 311 310 315 316 318 317 315 320 326 322 307 308 315 271 255 274 266 256 238 221 211 198 191 185 193 202 188 184 140 133 124 101 212 287 141 222 236 176 183 226 221 234 191 242 255 230 250 266 281 277 273 322 343 308 61 131 135 130 234 236 227 220 179 160 156 152 149 148 149
313 311 310 307 306 306 307 309 307 307 307 307 308 308 308 307 308 309 310 309 311 314 315 320 319 320 324 325 326 297 246 255 297 350 26 343 304 231 202 190 185 182 177 181 178 162 169 131 124 152 145 178 209 198 239 249 155 201 268 240 226 212 240 262 231 252 259 251 253 260 270 185 3 340 170 152 175 227 239 226 200 159 158 155 149 152 149 138
313 310 309 309 308 306 306 308 307 306 307 306 306 307 307 307 308 308 308 309 311 313 316 322 321 322 327 332 331 278 119 259 271 270 284 333 340 213 177 176 178 178 180 179 164 159 163 142 158 163 137 179 211 213 237 250 156 189 258 268 248 225 233 254 247 261 270 232 242 247 14 321 326 301 278 189 225 245 283 112 125 128 136 142 145 142 131 119
315 312 311 311 309 307 306 306 307 307 306 306 306 306 307 306 307 307 307 309 309 312 317 321 323 329 333 336 307 285 257 250 257 259 266 288 323 165 165 172 178 181 183 185 179 163 158 158 178 155 143 213 197 199 220 209 198 201 234 259 259 244 240 252 247 256 264 249 262 274 231 247 219 225 331 285 275 329 71 102 111 120 128 134 134 126 125 120
317 313 310 309 308 307 306 305 306 306 306 306 306 305 305 305 306 306 307 307 309 312 315 320 326 334 333 330 334 284 256 252 260 266 265 264 248 163 166 173 182 184 183 194 187 158 171 179 187 175 169 215 189 196 209 179 238 214 218 247 263 264 256 252 245 243 245 243 249 223 248 259 236 183 297 278 277 89 100 105 117 130 133 124 123 135 138 131
317 314 307 304 305 306 306 306 305 305 306 305 305 305 304 304 304 304 305 306 308 310 313 320 324 331 330 323 164 243 257 266 275 265 256 240 191 167 170 179 184 185 182 188 184 176 188 173 177 188 160 212 203 206 198 171 216 209 205 248 249 256 260 244 237 234 223 227 201 191 236 265 281 192 262 283 230 131 107 113 140 136 130 128 137 146 139 137
316 313 309 306 305 305 305 306 305 305 305 305 305 304 303 303 302 302 303 304 305 307 311 314 321 332 320 341 152 221 263 296 324 290 227 206 187 176 182 191 188 188 184 175 192 196 191 168 160 161 168 220 214 220 220 194 228 240 225 289 268 265 271 238 230 230 198 221 193 176 229 275 327 196 227 237 177 143 129 145 152 126 125 136 146 146 138 147
313 311 310 307 305 304 304 305 305 305 305 305 304 303 303 302 300 301 300 300 301 303 308 308 318 321 297 352 220 231 235 134 59 24 299 195 189 187 193 200 201 199 191 182 204 202 190 185 159 153 220 232 289 258 228 214 258 279 263 303 288 327 318 249 226 212 177 208 184 159 273 301 268 230 247 224 158 129 141 157 143 128 136 141 150 151 148 156
311 311 309 307 306 305 305 304 306 306 305 305 304 304 302 299 300 299 297 297 298 300 301 301 306 280 269 275 238 240 241 228 283 305 281 231 208 211 222 221 222 218 204 199 211 199 194 202 183 184 231 139 258 253 155 246 295 291 284 170 285 355 331 266 242 176 170 195 173 151 282 283 259 252 269 242 150 126 149 167 147 138 146 149 157 155 156 169
313 312 309 308 308 308 306 305 306 306 306 306 305 303 300 300 298 295 294 292 293 298 293 287 252 210 173 252 262 265 267 266 273 272 255 234 221 227 247 237 230 224 211 212 220 196 197 206 193 211 247 173 239 276 348 357 12 310 302 93 321 2 282 286 304 142 155 220 154 126 233 263 274 268 239 232 163 149 174 179 155 154 161 159 162 160 169 182
314 314 312 311 309 309 307 306 308 306 307 307 304 304 300 298 294 292 293 289 289 286 268 252 204 181 352 273 279 291 274 262 253 243 233 218 204 216 240 222 220 221 213 217 225 200 190 192 181 207 255 203 59 329 330 347 1 18 320 303 333 194 260 304 313 153 156 254 108 123 209 266 288 292 204 204 175 168 185 183 169 177 173 166 169 167 173 176
311 309 311 314 311 309 308 307 308 307 308 308 306 304 299 296 294 292 287 277 275 246 222 205 195 183 314 276 286 301 245 234 238 232 225 217 208 215 223 205 206 217 216 224 234 236 218 165 185 176 204 178 96 89 36 357 333 3 108 242 297 256 282 317 318 265 179 168 9 179 219 271 303 324 235 186 178 184 193 192 183 185 180 175 175 166 163 150
309 306 307 312 311 310 309 309 310 310 310 310 309 304 300 300 293 283 269 237 221 212 183 144 166 176 260 275 298 297 237 221 227 220 210 212 218 216 191 174 190 199 211 228 241 257 279 73 231 206 68 90 116 98 84 279 279 323 10 215 268 272 279 298 315 324 185 164 238 217 224 252 233 61 12 204 192 195 207 206 193 190 188 180 170 154 148 154
311 308 307 311 312 311 311 311 311 311 312 311 311 307 306 309 286 257 211 172 148 160 181 186 152 157 263 270 258 256 273 217 209 206 198 201 211 208 185 169 162 140 149 247 238 208 185 59 112 131 50 88 116 106 155 220 207 184 346 60 318 309 309 271 277 309 354 269 243 195 234 255 248 38 340 228 205 202 214 200 165 175 178 166 150 141 143 174
312 310 309 312 312 312 311 312 311 312 314 313 315 316 315 10 72 127 141 155 139 135 202 206 180 159 278 260 218 248 305 268 191 197 187 186 197 201 198 195 138 116 117 81 201 187 159 91 82 135 187 194 168 151 176 201 165 157 155 123 240 306 293 267 258 253 242 268 255 208 218 250 263 310 284 241 230 220 224 166 128 150 152 154 140 141 169 189
312 311 310 311 311 312 311 312 312 311 315 315 323 333 349 103 65 120 149 194 213 227 240 190 194 235 299 278 69 349 324 306 175 194 183 180 173 171 199 201 119 111 139 148 188 198 139 150 169 182 196 197 195 184 170 164 137 137 99 76 274 295 290 281 280 278 230 202 254 221 215 249 269 292 283 273 278 235 229 211 175 168 163 177 166 168 182 183
314 313 311 312 313 313 311 311 310 309 312 310 317 331 272 249 243 152 222 231 238 240 256 232 200 235 265 268 330 360 345 321 327 224 185 179 156 145 196 177 138 165 181 162 166 95 115 168 211 210 198 187 194 187 153 123 102 96 87 348 307 277 271 274 267 290 258 172 260 226 190 248 281 303 320 2 355 248 233 226 213 190 181 186 165 155 130 79
316 317 315 315 315 313 312 311 308 306 305 302 300 268 255 272 311 339 324 258 250 231 240 246 219 239 257 266 284 298 298 267 297 302 179 169 148 164 192 127 148 195 187 139 119 74 122 207 229 216 191 169 177 143 120 120 124 117 117 104 299 261 281 290 274 296 349 166 255 156 159 253 331 336 350 13 0 299 281 275 329 327 118 59 81 95 81 80
317 318 316 314 314 313 312 309 304 302 296 289 260 220 266 305 314 320 317 270 274 226 221 236 228 240 251 263 268 243 218 212 219 236 170 156 151 180 160 124 166 175 134 145 148 143 162 241 233 193 149 152 211 133 109 104 118 150 167 133 248 255 269 290 285 309 344 114 197 128 140 313 356 14 16 7 353 348 359 30 34 30 55 71 102 116 119 126
313 316 314 312 314 313 312 308 305 300 295 283 253 244 291 319 315 311 293 223 279 239 211 214 210 228 235 242 225 196 206 206 195 206 168 156 142 157 156 148 161 159 166 165 151 164 214 243 196 137 139 165 209 196 124 130 239 253 205 150 188 245 215 222 274 319 345 6 65 95 59 341 2 26 16 354 350 2 13 26 22 14 27 65 105 100 125 151
313 314 312 312 315 315 313 310 307 310 317 291 267 275 315 321 321 311 240 261 287 262 216 196 190 222 217 202 181 177 183 227 216 194 166 163 154 147 171 154 141 173 190 159 146 190 239 238 121 118 155 171 195 223 165 157 183 292 233 176 191 228 227 228 302 4 29 9 17 84 73 299 331 22 13 350 357 4 13 25 20 10 9 14 68 105 135 159
313 311 312 314 315 320 319 312 318 330 319 282 269 309 320 324 338 292 196 18 300 253 151 167 177 193 187 169 170 157 112 254 223 179 166 169 165 149 158 168 125 179 181 152 151 209 233 187 139 143 166 169 192 230 213 161 139 281 236 181 183 188 158 180 41 55 76 338 334 82 117 229 324 12 0 346 358 7 16 23 20 19 18 18 21 46 125 134
312 309 312 315 317 328 329 308 317 322 304 267 304 321 322 334 347 223 176 28 288 217 140 173 188 173 181 173 158 142 162 228 161 166 170 169 170 134 142 188 167 169 170 132 167 234 183 161 161 161 157 167 195 227 214 159 129 234 237 148 154 158 148 168 112 89 178 226 327 11 100 116 337 338 336 337 356 21 22 18 15 20 24 29 27 14 17 74
310 311 312 314 317 319 309 299 306 297 251 298 322 326 329 335 334 179 120 354 240 154 137 212 200 172 179 161 154 160 215 167 141 197 178 166 166 114 143 197 179 170 167 134 180 245 171 161 181 176 159 176 204 204 185 152 140 242 230 133 152 164 151 155 107 91 36 76 327 319 54 90 320 301 325 347 15 22 18 13 13 18 21 29 33 29 22 12
307 310 309 312 313 307 303 292 273 254 274 309 325 328 326 322 332 100 64 244 203 134 129 159 182 174 144 145 166 190 231 133 167 190 146 157 166 127 170 200 164 162 186 162 186 238 202 185 180 163 161 201 217 197 161 156 186 243 198 114 82 78 95 99 97 101 43 60 231 273 26 101 289 311 337 1 16 4 0 10 16 16 17 26 32 36 38 30
306 305 304 311 310 307 314 285 260 261 285 304 320 325 320 317 50 85 190 241 210 209 106 133 189 159 144 152 172 197 187 104 141 117 102 149 169 146 158 140 112 132 197 184 190 239 281 221 161 153 182 206 211 183 162 177 188 176 142 111 59 42 47 49 66 92 72 29 253 258 67 100 123 311 339 8 28 357 345 0 19 18 15 21 30 37 43 42
304 302 302 304 300 301 311 286 264 260 274 304 323 326 323 53 56 131 197 261 259 233 100 171 199 141 155 164 165 185 184 98 103 128 132 146 156 160 76 84 83 96 173 307 272 290 329 348 186 218 212 192 169 158 175 192 174 101 121 122 104 11 24 30 1 51 98 251 262 256 82 83 102 246 310 351 34 25 4 359 15 24 18 16 28 36 41 43
303 303 301 294 288 277 262 249 254 268 292 317 330 336 87 85 250 205 255 312 359 269 203 163 193 164 161 164 165 173 159 121 133 140 143 139 158 191 156 153 163 129 210 234 257 327 323 236 260 292 233 173 141 149 165 146 102 104 115 98 110 43 31 42 307 60 160 230 239 224 94 74 79 239 292 342 31 35 24 18 20 28 23 19 26 30 35 40
306 305 299 290 282 267 254 250 262 279 299 319 335 39 85 124 224 217 261 307 30 288 271 142 163 162 152 156 172 168 132 151 181 137 136 133 151 197 211 159 160 146 177 204 179 353 316 288 305 321 261 181 144 150 156 151 142 149 149 121 128 118 90 210 268 138 210 231 216 232 114 97 159 196 290 343 56 56 46 44 39 39 31 26 30 33 35 36
309 306 299 292 282 266 258 257 261 271 296 323 10 87 92 203 234 188 226 314 54 272 272 158 137 138 156 168 168 155 127 174 180 124 124 123 133 194 221 219 166 150 137 153 158 159 165 289 264 196 237 193 165 174 168 154 149 169 160 128 140 148 136 195 204 162 196 198 277 307 56 131 183 116 325 311 51 85 68 55 50 49 40 34 38 38 39 35
312 308 303 295 281 265 254 250 250 249 270 344 81 121 197 222 261 201 215 26 59 269 285 144 136 138 166 178 152 164 151 153 170 126 134 156 153 189 194 199 203 154 125 157 207 167 147 230 254 236 228 176 173 188 147 124 116 233 139 101 137 177 141 133 179 171 173 138 6 351 80 118 162 102 343 301 307 85 76 58 52 50 42 39 39 36 36 35
316 313 307 288 276 265 235 224 216 198 189 116 113 190 225 227 235 228 260 32 194 268 306 349 136 130 151 158 168 184 150 103 157 141 143 164 163 190 188 200 200 164 139 156 204 158 126 251 278 287 262 205 179 181 157 140 157 171 117 141 197 171 123 114 198 191 105 109 17 326 125 102 106 106 324 281 136 80 63 51 49 50 48 46 40 33 30 30
317 314 302 279 271 247 192 191 178 168 160 124 154 213 237 237 237 251 288 319 261 267 308 116 141 117 148 175 189 182 144 109 167 164 176 175 180 199 195 219 196 177 173 152 191 212 140 262 287 248 233 254 178 132 75 73 138 122 167 187 157 76 91 107 140 12 48 108 263 329 106 130 152 185 270 179 128 96 78 60 47 41 47 49 42 34 27 23
312 303 289 279 259 191 175 169 161 153 121 122 204 250 241 238 274 290 298 308 289 288 25 128 148 109 142 167 204 174 149 165 188 165 163 187 237 202 179 210 202 190 186 152 157 253 121 7 292 265 217 267 37 79 55 344 46 123 166 165 110 111 155 94 123 122 90 130 166 9 22 169 167 217 233 151 129 112 97 75 54 41 42 44 34 29 25 22
301 288 298 299 214 174 163 157 152 131 69 147 211 255 249 257 292 296 302 310 291 284 15 67 129 87 116 147 171 162 154 176 183 159 145 154 211 247 164 186 205 197 181 155 159 226 115 102 284 285 260 243 25 63 159 281 355 79 92 45 60 135 158 158 139 144 143 148 146 86 2 284 207 231 251 153 140 124 107 89 66 49 43 41 34 26 21 20
285 271 353 344 179 162 152 147 137 77 124 184 207 238 285 315 303 297 310 316 285 215 309 45 97 79 78 127 135 158 163 169 162 148 132 103 110 295 300 44 334 170 158 154 157 209 100 106 231 292 325 78 133 225 187 187 172 105 98 80 312 87 112 151 113 96 128 138 141 130 196 270 234 242 274 153 139 118 109 104 81 60 47 41 35 29 22 17
288 273 311 203 162 150 142 135 103 144 179 243 236 248 303 323 308 298 308 308 273 216 181 132 97 101 140 101 90 107 133 131 125 108 61 59 93 122 303 50 13 126 124 126 118 131 152 138 176 287 352 54 257 283 214 167 141 126 128 153 174 135 119 123 120 338 86 120 154 149 172 250 263 48 49 104 108 90 86 94 86 67 52 44 34 29 25 19
271 126 275 174 158 151 138 95 105 153 186 248 247 271 295 301 294 296 309 310 288 294 32 73 73 70 24 67 89 79 90 97 83 90 96 74 95 145 306 339 343 112 112 125 186 174 140 112 123 263 329 217 273 317 53 115 102 93 82 50 85 127 121 124 176 222 73 87 132 109 117 232 64 82 80 77 78 68 57 65 81 70 53 44 33 26 23 18
263 16 163 165 162 155 68 69 65 335 256 251 275 276 264 272 286 305 312 318 345 11 20 24 35 60 23 26 71 70 77 75 52 76 123 89 55 311 310 333 345 68 87 120 191 128 101 98 102 233 315 317 299 331 26 60 78 78 46 24 43 82 135 138 168 171 120 125 120 80 84 227 138 102 89 71 68 66 52 44 60 62 46 33 27 23 19 12
295 326 106 168 177 184 19 155 186 331 268 293 298 278 267 252 252 263 283 306 334 16 46 12 357 41 26 28 63 59 70 81 47 36 91 94 19 312 333 351 9 90 86 161 171 136 131 121 100 108 47 348 321 332 6 13 39 69 30 348 348 22 104 127 121 82 109 175 146 119 142 197 135 110 91 77 73 67 54 45 52 51 39 27 20 17 15 10
305 319 37 175 191 212 309 174 149 122 274 309 297 281 291 267 242 233 239 291 324 75 100 20 325 37 31 34 54 38 41 82 87 23 58 65 1 325 346 351 2 76 87 111 125 113 107 103 106 131 151 177 194 207 228 332 25 47 21 356 359 24 80 125 121 88 125 184 114 118 145 135 120 109 92 83 80 72 55 49 49 44 36 26 17 16 13 8
305 225 66 156 192 211 237 196 119 145 239 272 282 282 254 244 269 228 207 253 332 24 70 20 340 50 38 43 60 35 27 52 77 82 81 61 17 333 340 344 0 42 60 66 68 84 99 75 68 112 135 180 187 195 202 131 78 37 357 359 9 10 31 98 119 142 164 143 49 187 153 136 131 124 108 91 84 78 56 44 44 38 30 21 16 18 15 10
272 202 151 154 184 215 252 305 100 184 232 210 281 293 254 251 287 280 246 48 348 7 55 38 21 43 44 59 81 46 14 33 47 61 74 63 84 322 337 353 9 5 17 42 30 53 101 61 23 72 77 75 103 78 62 77 78 66 36 12 19 36 53 76 96 155 147 125 72 220 152 136 136 130 118 110 99 88 66 48 43 35 25 18 16 17 17 13
242 268 189 202 193 186 219 251 198 207 248 257 276 297 281 303 39 18 318 360 11 12 65 38 5 17 68 97 105 76 18 34 34 45 68 40 46 354 347 360 9 4 15 35 15 63 105 64 9 76 68 44 47 64 78 87 82 67 59 42 33 47 63 73 63 359 123 137 166 161 138 122 117 113 108 108 104 97 86 72 58 46 31 20 21 22 19 12
222 306 278 275 302 185 197 204 184 199 228 218 230 276 254 3 48 29 286 30 21 5 64 71 0 9 45 79 105 92 48 86 57 27 94 57 44 56 24 359 347 4 33 50 26 65 97 64 23 88 76 42 23 29 75 92 88 64 52 47 45 54 65 68 64 56 65 89 127 127 113 94 86 96 94 90 91 97 96 79 61 51 38 26 28 30 22 12
173 345 310 8 348 244 206 187 161 172 220 204 214 262 251 64 50 45 6 61 73 8 48 88 68 48 58 70 84 85 164 155 129 119 151 111 75 102 116 198 294 358 25 46 28 30 80 124 225 73 73 33 12 35 70 85 87 69 43 31 36 49 56 54 55 64 67 77 98 104 102 94 83 87 86 78 71 77 77 68 59 49 40 36 37 32 24 17
291 299 313 45 330 277 210 209 144 132 204 213 208 253 318 33 71 88 38 22 103 107 106 120 104 63 54 60 67 81 180 148 119 138 169 145 111 126 139 146 154 64 22 34 27 24 79 119 103 64 82 16 341 77 80 76 78 66 35 15 18 33 54 53 40 41 76 119 118 110 109 119 118 106 91 72 65 65 62 62 60 49 42 45 42 35 28 22
319 311 334 87 269 298 190 175 105 118 211 213 199 247 14 260 238 105 71 10 30 71 116 134 115 72 51 55 56 97 208 174 139 154 166 130 90 92 97 86 101 115 110 89 46 34 108 126 135 106 99 140 237 198 41 44 65 56 6 348 355 26 75 70 41 24 26 115 127 123 127 127 125 121 102 79 70 67 59 57 55 45 43 46 45 39 32 25
Height
802 802 801 800 799 799 798 797 796 795 795 794 793 792 791 790 788 787 787 785 784 783 782 781 781 780 779 778 777 775 774 771 768 769 764 752 750 755 756 757 758 759 760 761 762 762 764 766 767 768 770 771 772 772 772 772 772 775 783 790 793 792 787 777 773 769 767 765 757 753 750 749 752 750 745 746 749 752 754 753 752 750 749 748 748 748 752 757
801 801 800 799 799 798 797 796 796 795 794 793 792 791 790 789 788 787 786 785 784 782 781 780 780 779 778 777 775 775 773 769 767 763 752 747 751 752 753 756 758 759 759 760 761 761 763 765 767 768 770 772 772 771 772 771 771 776 783 788 789 785 778 769 766 763 762 763 759 755 752 749 751 751 747 752 758 756 756 756 754 755 754 751 750 751 755 758
800 800 799 798 798 797 796 796 795 794 793 793 792 791 790 789 787 786 785 784 783 781 780 779 779 778 777 775 775 774 772 770 766 755 743 745 749 747 750 754 756 757 758 758 760 761 763 764 766 768 771 772 772 771 773 771 771 774 779 785 781 776 772 765 763 760 758 758 758 756 751 748 748 748 749 754 760 759 757 756 754 757 758 756 754 754 757 759
799 799 798 797 797 796 795 795 794 793 793 792 791 790 789 788 787 786 784 784 782 781 779 778 778 776 776 774 774 773 772 770 759 745 741 744 744 744 747 750 753 756 757 758 760 762 763 765 766 768 772 774 773 772 773 771 771 773 775 779 773 771 771 762 759 758 755 755 756 755 751 750 746 746 751 755 762 763 758 753 749 752 756 757 756 756 758 760
799 798 797 797 796 795 794 794 793 792 792 791 790 789 788 787 786 784 784 783 781 780 778 778 776 775 775 773 773 772 773 769 750 740 742 742 741 742 743 746 751 754 756 759 760 762 763 765 766 769 772 774 774 773 773 768 768 772 772 770 768 769 769 759 757 757 754 753 755 754 751 750 746 747 752 755 760 760 752 746 744 747 751 752 754 756 759 761
798 797 796 795 795 794 793 793 792 791 791 790 789 788 787 786 785 783 783 781 780 779 778 777 775 775 773 772 772 771 772 762 743 739 741 739 740 739 741 745 749 753 755 758 759 761 763 764 767 770 772 774 775 773 771 766 766 773 771 766 765 766 765 758 756 755 752 753 754 751 748 747 748 749 751 752 754 749 743 741 742 746 749 749 752 756 760 765
797 796 795 794 794 793 792 792 791 790 789 789 788 787 786 785 784 782 781 780 779 778 777 776 774 774 772 772 771 771 772 757 739 741 740 739 740 738 741 745 749 752 754 757 758 760 762 764 767 769 772 774 774 771 768 766 766 772 771 764 762 763 762 757 756 754 752 754 752 748 747 748 750 750 749 749 747 744 741 741 742 746 750 752 755 758 763 768
796 795 794 793 792 792 791 790 789 789 788 787 787 785 785 783 782 781 780 779 778 777 776 774 774 773 772 772 770 771 769 751 737 741 741 740 741 739 742 746 749 751 752 755 756 759 761 763 765 766 772 773 770 769 766 767 768 769 768 763 760 760 758 755 756 755 753 754 752 750 749 749 749 750 750 746 745 745 743 742 745 748 752 755 759 763 765 768
795 794 793 792 791 791 790 789 788 788 787 786 785 784 783 782 781 780 779 778 777 777 775 774 773 772 773 772 772 770 757 741 737 741 740 741 741 741 743 745 748 749 752 755 756 759 760 762 763 763 768 769 766 766 764 768 770 765 763 761 759 758 754 753 755 755 755 753 751 753 753 749 747 750 751 747 747 746 745 746 748 750 755 759 762 764 765 768
793 792 792 791 790 790 789 788 787 786 786 784 783 783 781 780 780 778 778 777 776 776 774 774 772 772 773 771 772 766 746 737 739 738 738 740 741 742 743 744 746 748 751 754 755 757 756 758 760 759 763 765 763 764 762 765 765 760 760 760 758 757 754 753 753 752 753 751 750 753 754 750 749 753 754 749 747 746 747 750 751 752 758 761 763 764 765 768
792 791 791 790 789 788 787 787 786 785 784 783 782 781 780 779 778 777 776 776 775 775 774 772 772 772 772 771 772 759 740 737 739 737 738 739 740 741 742 744 745 747 749 752 753 752 752 755 757 759 763 763 761 762 760 759 759 757 758 759 756 755 754 753 753 751 751 750 748 750 752 751 751 754 752 747 747 747 749 752 753 756 760 761 763 765 766 767
791 790 789 788 788 787 786 785 784 784 782 781 781 779 778 777 776 775 775 774 774 774 773 771 772 771 771 773 767 748 737 738 737 737 740 739 741 742 742 744 744 745 747 749 750 749 753 755 755 760 761 760 762 763 759 755 756 755 757 761 757 754 754 751 750 749 749 749 745 748 757 756 753 752 748 746 747 749 751 754 756 758 760 762 764 765 766 767
790 789 788 787 786 785 785 784 783 782 781 780 779 777 777 775 774 774 773 773 772 772 772 771 771 771 772 767 750 737 737 738 736 738 740 740 741 742 743 745 745 746 746 747 748 749 753 753 755 759 757 759 762 759 754 753 755 756 757 761 760 760 757 750 749 748 748 749 742 749 766 762 752 751 749 747 748 751 754 756 757 759 761 762 763 765 766 766
788 788 787 786 785 784 783 782 782 781 780 779 777 776 774 773 772 771 771 771 770 771 771 770 771 771 772 758 737 734 737 737 737 737 737 738 739 741 742 743 744 746 747 748 749 749 752 753 756 757 756 758 757 753 755 757 757 758 760 762 766 768 762 750 749 749 749 750 742 749 769 763 749 750 750 748 749 750 754 757 758 759 760 762 763 765 766 765
787 786 785 785 784 783 782 781 780 779 778 777 775 774 772 771 770 769 770 769 769 770 769 770 770 770 772 755 735 734 735 735 735 732 734 736 736 739 740 741 743 744 746 748 749 750 751 753 756 758 756 754 754 757 761 761 760 762 767 770 771 769 763 753 749 749 750 750 745 751 767 762 750 750 749 749 750 750 753 756 758 759 759 762 762 764 766 766
786 785 784 783 782 782 781 780 779 778 777 775 773 772 769 768 767 767 767 767 768 769 769 770 768 770 768 750 735 733 732 732 730 729 733 733 734 737 738 740 742 744 746 747 748 749 751 753 754 755 755 754 758 762 766 769 768 768 772 774 772 769 767 760 751 749 747 748 749 753 761 759 754 753 749 749 751 751 753 755 757 758 759 760 761 763 766 768
785 784 783 782 781 780 780 778 778 777 775 774 771 769 766 765 764 764 765 766 767 766 768 767 767 771 759 739 734 732 728 728 727 729 730 730 733 735 737 741 742 743 745 746 748 749 750 753 754 754 755 758 760 763 773 781 778 775 774 772 773 771 770 766 758 752 748 750 752 753 757 755 753 755 753 751 751 751 752 753 756 757 758 760 761 764 767 769
783 782 781 780 780 779 778 777 776 775 774 772 770 766 763 761 761 762 763 764 766 767 768 766 769 768 748 732 732 729 725 725 725 726 727 729 731 734 737 739 740 743 746 748 749 750 752 754 755 757 760 762 762 765 777 782 777 777 775 772 775 773 770 771 764 755 750 752 754 757 760 754 751 754 753 751 751 751 751 751 756 758 760 762 763 766 768 768
782 781 780 779 778 778 777 776 775 774 773 771 769 765 762 761 761 762 763 763 764 762 759 758 760 752 735 728 728 726 725 724 723 725 726 728 730 734 737 738 740 743 748 753 752 750 752 756 759 763 765 765 764 765 770 772 771 773 773 774 776 775 771 769 764 755 752 756 756 759 760 752 751 754 752 752 751 752 752 752 755 757 760 763 765 767 768 767
780 779 778 778 777 776 775 774 774 773 772 771 769 766 762 761 761 761 763 762 757 749 744 746 747 739 730 727 726 727 726 722 723 724 724 726 729 734 738 738 741 744 749 753 753 751 751 758 764 764 764 764 763 761 762 766 768 770 772 774 775 777 773 766 761 753 751 758 756 755 758 754 754 752 751 755 756 755 755 755 755 755 758 761 764 766 766 769
779 778 777 776 775 774 774 773 773 772 772 771 770 769 763 759 758 759 760 757 749 744 742 741 743 738 729 726 726 729 729 726 723 722 723 725 728 736 739 739 745 750 750 749 750 750 752 762 764 759 759 760 759 760 762 766 768 770 772 775 777 779 774 764 761 754 751 759 755 754 761 759 756 753 754 760 762 759 757 756 757 754 755 758 762 767 769 773
778 776 775 775 774 773 772 771 771 770 771 770 770 770 764 758 757 757 757 753 744 740 740 738 740 737 728 727 728 730 734 732 725 722 723 725 729 737 738 740 747 751 750 749 752 756 760 763 759 755 759 761 760 764 767 767 768 771 774 778 779 777 773 764 758 753 752 757 754 756 762 760 761 761 761 766 766 765 761 759 760 759 759 763 765 769 771 774
776 775 775 774 772 772 770 770 769 768 768 767 767 766 761 757 757 756 757 754 742 734 734 734 735 734 730 729 728 729 733 731 727 723 721 725 731 734 737 742 747 749 752 752 755 762 766 761 754 756 761 761 762 766 770 769 770 772 774 779 779 775 775 770 760 752 754 757 754 756 760 762 770 772 768 769 769 769 765 761 761 761 764 765 765 766 768 771
775 774 774 772 772 771 769 768 766 766 765 765 763 759 756 755 755 756 755 751 741 730 725 725 727 728 726 724 723 727 729 725 724 722 719 724 730 733 736 741 746 751 752 752 754 760 761 754 750 756 761 760 761 765 769 770 771 771 771 777 777 771 771 770 763 755 754 758 755 756 762 767 777 781 777 775 773 772 770 765 764 766 767 765 763 765 767 767
774 774 773 771 771 769 768 766 764 764 764 762 759 755 755 755 752 754 753 748 740 729 721 720 723 720 716 719 722 722 724 722 718 718 717 720 726 732 736 737 744 752 753 752 756 758 756 750 749 756 761 762 763 765 767 768 771 770 766 768 768 765 766 766 764 760 761 765 761 763 774 779 781 784 784 781 781 780 776 774 774 773 772 769 767 767 767 767
773 773 772 771 770 767 766 764 762 764 762 759 756 753 755 753 750 752 752 749 741 727 720 720 719 714 710 716 718 718 726 723 712 713 716 718 721 727 735 738 740 748 750 750 754 755 752 747 748 754 759 763 765 766 765 764 771 772 761 757 760 763 766 765 762 763 770 773 767 765 775 782 780 782 785 785 786 787 781 779 780 778 778 776 774 772 770 770
771 771 770 770 768 767 766 763 763 763 761 756 753 752 752 749 750 749 749 753 741 720 718 721 715 709 707 709 711 718 728 720 711 714 714 718 721 722 734 741 740 744 743 747 756 753 746 747 750 752 756 763 766 765 762 760 769 770 754 751 759 762 765 765 760 764 771 771 768 766 769 781 790 788 786 787 788 789 787 784 783 781 782 781 779 778 776 774
771 769 769 768 768 768 766 765 764 762 758 754 751 751 748 746 749 747 750 754 732 708 711 716 710 705 704 706 708 713 717 712 716 719 712 716 721 723 734 739 739 743 737 745 760 751 742 747 750 751 756 762 759 756 755 756 763 759 747 750 756 757 761 760 759 767 773 773 774 772 770 787 807 799 787 787 789 792 794 791 788 785 785 784 782 781 780 779
770 768 768 767 766 766 765 765 763 758 755 752 750 749 745 746 746 745 756 752 720 703 706 707 707 706 705 709 710 709 709 709 716 717 712 717 721 722 732 734 735 741 737 741 753 747 740 741 741 747 755 754 748 747 749 753 756 748 745 753 755 757 761 761 763 767 774 781 780 776 774 787 810 808 794 792 794 797 798 795 792 789 787 785 784 783 783 782
769 768 767 766 765 764 764 762 758 754 753 752 750 747 744 746 746 752 761 741 712 705 705 705 708 707 707 712 714 712 712 712 712 714 717 720 721 721 726 728 731 740 741 741 745 744 739 736 737 742 744 741 739 743 745 745 746 743 747 755 756 761 763 765 770 769 778 789 781 779 781 782 800 810 804 800 800 800 800 797 795 792 790 788 786 785 784 784
767 766 766 765 764 763 763 758 753 752 754 752 749 746 745 747 750 758 751 721 707 710 707 709 709 705 708 713 715 716 715 715 714 717 722 723 725 727 728 732 736 742 747 746 746 745 741 739 738 734 732 733 736 743 745 742 743 745 749 754 760 768 769 772 777 776 787 795 785 786 787 785 800 811 806 803 801 801 800 800 799 796 794 791 788 788 787 786
764 763 763 762 762 762 760 755 751 752 753 751 750 746 747 752 755 754 736 711 714 716 707 709 710 706 709 710 713 716 716 718 717 718 724 727 731 732 732 737 741 748 756 754 750 748 743 740 738 732 728 729 736 746 750 747 748 750 752 756 767 779 783 785 789 788 791 791 790 793 789 794 811 812 806 806 802 801 801 801 800 798 797 794 792 791 790 789
762 761 759 758 758 757 754 751 751 753 752 751 751 746 750 756 750 740 729 718 720 717 705 705 706 706 710 712 715 716 716 719 718 719 724 726 732 734 732 734 735 742 753 755 754 753 748 742 737 735 731 726 732 744 751 753 752 751 751 756 769 784 793 799 804 804 797 789 791 793 789 803 817 810 807 808 802 801 801 800 800 798 798 798 795 794 792 792
759 758 755 753 752 750 748 750 751 753 753 752 750 749 755 756 740 728 725 719 718 715 705 702 705 709 711 712 714 713 717 722 717 719 726 729 735 738 736 736 734 735 742 752 755 754 758 754 739 734 732 726 728 734 737 742 747 749 749 751 761 772 783 793 796 794 791 789 792 792 796 811 816 809 807 805 801 800 800 799 799 798 799 798 797 797 796 796
756 754 751 748 746 744 744 748 750 752 754 752 750 754 757 749 734 727 722 716 718 715 704 699 704 712 715 713 712 710 714 721 720 721 727 731 736 738 736 736 735 734 739 750 754 751 758 754 732 726 728 724 726 727 725 734 747 754 751 753 758 757 763 781 790 787 784 790 801 806 809 814 812 809 807 804 802 801 799 800 800 800 801 801 801 802 801 801
753 750 748 744 742 741 742 745 748 751 753 751 751 755 752 740 731 727 718 714 719 715 707 706 706 714 720 716 715 712 711 717 721 724 729 732 733 734 733 731 729 731 735 744 751 750 754 749 732 726 726 722 724 723 722 729 743 753 753 753 755 750 752 772 791 793 785 791 811 817 813 814 813 811 808 806 805 803 802 802 802 804 805 805 807 807 806 805
751 748 746 742 739 739 741 743 746 750 751 750 751 750 744 734 726 722 715 712 713 709 710 715 710 712 721 719 717 716 713 718 722 724 730 733 732 731 730 727 724 726 727 732 741 745 748 745 734 728 726 723 721 721 722 724 731 746 751 746 749 754 756 764 781 792 789 797 816 819 814 816 817 814 810 808 807 806 805 805 805 807 807 809 811 809 809 808
751 749 744 739 737 738 740 742 745 748 748 750 752 746 738 732 722 716 713 711 710 707 709 714 709 708 715 718 718 715 716 722 724 725 730 733 731 727 726 725 722 722 722 725 734 740 744 746 738 731 729 725 720 723 731 730 726 733 738 737 746 760 765 767 778 788 791 805 820 819 817 819 817 815 811 809 809 807 808 808 809 811 811 811 812 811 811 810
750 749 743 737 737 737 739 742 744 746 748 750 752 744 735 730 721 714 712 710 709 708 708 709 707 708 711 712 715 715 716 721 723 725 728 731 731 726 725 724 721 722 722 723 731 736 741 749 744 733 729 728 725 730 739 740 733 731 736 741 746 754 761 765 772 778 784 803 822 822 819 819 815 813 809 808 809 808 809 812 813 814 815 814 815 814 813 812
750 747 742 737 738 739 740 743 744 746 748 748 747 741 734 729 722 714 710 710 708 705 706 708 706 708 710 708 711 713 714 717 719 724 726 728 731 728 725 724 721 723 724 724 729 732 739 750 749 737 731 733 736 736 737 738 738 739 743 749 751 752 758 762 769 776 776 793 817 823 821 817 811 809 807 807 809 809 810 813 814 816 817 817 818 817 817 816
749 746 741 738 739 740 741 744 746 747 748 745 743 740 734 729 724 717 709 707 706 701 701 704 705 708 709 708 710 711 711 715 719 725 729 730 733 731 725 724 724 724 726 730 731 732 739 747 748 743 739 742 745 740 734 732 737 742 744 751 754 753 757 765 776 783 779 786 805 812 815 816 811 807 808 809 810 810 811 813 815 818 819 820 821 820 820 819
748 744 741 739 741 741 741 745 747 747 748 745 740 737 734 729 724 719 712 707 705 702 700 702 705 708 708 707 708 709 711 716 721 728 733 733 735 734 727 725 725 723 726 733 734 732 736 742 747 749 748 749 747 743 739 736 738 744 751 760 760 753 753 761 772 780 784 793 800 802 809 814 811 809 810 812 813 813 814 816 817 820 821 822 823 822 822 821
747 743 740 740 741 741 742 745 746 747 745 742 738 734 732 729 724 720 716 710 707 705 704 705 706 708 708 706 706 710 714 719 725 729 732 734 734 733 729 726 726 725 725 733 737 733 735 743 750 754 754 748 742 739 739 738 740 746 758 768 768 760 756 757 763 769 780 794 795 795 810 816 810 811 814 816 816 816 819 821 820 822 823 823 824 824 824 824
748 744 742 742 742 743 744 745 745 746 743 739 737 733 730 728 725 722 719 713 709 708 709 710 708 707 708 706 708 713 715 721 731 731 731 734 733 730 728 726 725 726 725 729 732 731 737 748 752 756 765 762 753 749 746 745 750 759 770 775 772 769 764 760 765 768 777 795 794 790 808 817 811 813 817 817 819 821 824 826 824 826 826 825 826 826 826 826
749 745 743 743 743 745 746 744 745 748 746 743 740 735 732 728 721 719 719 715 711 710 711 712 710 709 710 708 712 716 715 719 731 733 731 734 734 730 729 727 726 727 726 727 728 729 743 758 755 754 766 771 766 764 760 759 764 770 777 779 775 773 767 761 765 765 774 796 798 791 805 815 812 816 820 820 822 825 828 829 828 830 830 829 829 828 828 828
750 747 745 745 744 744 744 742 744 746 746 745 741 735 732 728 718 715 716 715 712 709 711 713 711 710 712 713 717 722 722 721 726 730 733 736 737 734 731 729 728 727 727 727 728 731 748 766 766 758 761 763 764 769 768 767 771 776 782 784 781 781 776 766 762 763 773 795 802 797 801 808 814 820 823 824 826 828 831 831 831 833 833 832 831 830 830 830
748 745 744 745 745 745 745 743 744 744 744 745 741 734 730 727 720 716 714 713 713 711 712 716 715 714 717 719 722 727 729 727 727 732 736 738 738 736 734 731 729 728 727 728 730 735 748 766 772 771 773 773 775 778 775 774 782 788 791 791 788 786 780 771 769 773 777 785 796 801 799 804 815 821 824 828 830 831 834 835 835 836 835 835 834 832 832 832
746 743 741 740 742 744 745 743 743 743 743 744 743 736 730 725 722 721 717 713 714 713 715 720 723 721 720 720 723 730 733 733 735 738 739 739 739 738 736 734 733 732 731 731 735 739 751 768 773 775 782 784 783 782 780 781 789 793 794 794 793 788 782 780 787 792 783 774 782 796 803 809 820 825 828 831 832 833 836 836 837 837 837 837 836 835 835 835
745 745 743 740 740 742 742 740 741 741 742 744 743 736 729 724 722 723 721 717 719 719 720 727 731 727 723 720 723 733 736 735 738 741 740 741 743 741 741 740 737 736 733 736 741 743 754 772 776 774 781 788 788 787 785 785 789 794 796 797 795 792 789 790 794 796 790 783 786 797 810 821 828 830 832 834 834 836 837 837 838 839 839 839 838 837 838 837
746 746 744 743 742 742 741 740 740 740 740 742 740 732 727 725 723 723 723 722 724 724 723 730 734 731 728 726 726 734 738 734 735 738 739 741 742 742 744 743 741 740 739 741 746 745 753 771 777 774 781 791 793 793 790 788 791 797 801 802 800 798 796 797 799 798 797 800 804 808 817 828 833 834 836 837 837 838 838 838 840 841 841 841 839 839 840 839
746 744 743 744 743 741 741 739 738 737 736 737 736 728 725 725 724 723 724 723 724 724 725 729 732 731 731 732 732 735 737 734 733 734 735 736 738 739 741 743 742 742 743 747 748 746 752 770 778 774 780 792 795 793 792 789 788 795 804 807 807 805 803 804 806 804 803 807 810 812 818 829 835 837 838 839 840 841 841 841 842 843 842 842 842 841 841 840
746 743 742 743 743 740 739 737 736 734 731 730 729 725 724 725 723 722 725 725 724 725 726 727 728 731 734 735 735 734 733 732 732 733 733 735 738 740 742 744 744 743 745 749 753 753 755 766 775 772 779 793 795 791 791 786 782 793 807 812 811 809 808 809 811 811 810 809 809 812 819 830 836 837 839 842 843 844 845 844 844 845 844 843 843 842 842 842